Location: Charbonni�res
(45.9952°N, 2.9982°E)
Time: 17:57:51
(UTC+00:00)

Cosmos 372 Rocket - Pass Details

Date: 29 November 2020
Orbit: 737 x 769 km, 74.1° (Epoch: 22 January)

Event Time Altitude Azimuth Distance (km) Brightness Sun altitude
Rises 06:10:39 0° 207° (SSW) 3,158 7.1 -9.7°
Reaches altitude 10° 06:13:00 10° 209° (SSW) 2,239 6.3 -9.3°
Maximum altitude 06:18:03 69° 293° (WNW) 790 3.9 -8.5°
Drops below altitude 10° 06:23:08 10° 17° (NNE) 2,257 6.4 -7.7°
Sets 06:25:31 0° 20° (NNE) 3,187 7.2 -7.3°
